When you browse on this site, cookies collect data to enhance your experience and personalize the content and advertising you see.
Visit our Privacy Policy to learn more. By continuing to use the site, you agree to this use of cookies and data.
  • In Österreich
  • Länderverzeichnis
  • Für 7 Tage
  • Wassertemperatur
  • Satellitenkarten
  • Wetterkarte
  • News
  • Widgets
  • user-avatar
    Anmelden

    Stündliche Wetter Malye Chuchevichi

    Heute, 23 Juli, Dienstag

    Zeit Temperatur Niederschläge Wind Luftdruck Luftfeuchtigkeit
    00:00 +14°C° 0 mm 3 m/S 749 mmHg 95%
    01:00 +14°C° 0 mm 3 m/S 749 mmHg 95%
    02:00 +13°C° 0 mm 3 m/S 749 mmHg 97%
    03:00 +13°C° 0 mm 3 m/S 749 mmHg 97%
    04:00 +12°C° 0 mm 3 m/S 749 mmHg 98%
    05:00 +12°C° 0 mm 3 m/S 749 mmHg 98%
    06:00 +12°C° 0 mm 3 m/S 749 mmHg 96%
    07:00 +13°C° 0 mm 4 m/S 748 mmHg 95%
    08:00 +14°C° 0 mm 4 m/S 748 mmHg 93%
    09:00 +15°C° 0 mm 4 m/S 748 mmHg 89%
    10:00 +17°C° 0 mm 4 m/S 748 mmHg 85%
    11:00 +18°C° 0 mm 4 m/S 748 mmHg 82%
    12:00 +18°C° 0 mm 4 m/S 748 mmHg 79%
    13:00 +19°C° 0 mm 4 m/S 748 mmHg 76%
    14:00 +20°C° 0 mm 5 m/S 748 mmHg 74%
    15:00 +20°C° 0 mm 4 m/S 748 mmHg 73%
    16:00 +21°C° 0 mm 4 m/S 748 mmHg 73%
    17:00 +21°C° 0 mm 3 m/S 748 mmHg 73%
    18:00 +20°C° 0.1 mm 3 m/S 748 mmHg 78%
    19:00 +19°C° 0.1 mm 3 m/S 747 mmHg 84%
    20:00 +18°C° 0.1 mm 3 m/S 747 mmHg 90%
    21:00 +18°C° 0.1 mm 3 m/S 747 mmHg 91%
    22:00 +17°C° 0.1 mm 3 m/S 747 mmHg 93%
    23:00 +16°C° 0.1 mm 3 m/S 748 mmHg 94%

    Morgen, 24 Juli, Mittwoch

    Zeit Temperatur Niederschläge Wind Luftdruck Luftfeuchtigkeit
    00:00 +16°C° 0 mm 3 m/S 748 mmHg 95%
    01:00 +16°C° 0 mm 3 m/S 747 mmHg 96%
    02:00 +14°C° 0 mm 3 m/S 747 mmHg 97%
    03:00 +14°C° 0 mm 3 m/S 747 mmHg 97%
    04:00 +14°C° 0 mm 3 m/S 747 mmHg 97%
    05:00 +14°C° 0 mm 3 m/S 747 mmHg 98%
    06:00 +16°C° 0 mm 3 m/S 748 mmHg 94%
    07:00 +18°C° 0 mm 3 m/S 748 mmHg 90%
    08:00 +19°C° 0 mm 3 m/S 748 mmHg 86%
    09:00 +21°C° 0.1 mm 3 m/S 748 mmHg 77%
    10:00 +22°C° 0.1 mm 3 m/S 748 mmHg 69%
    11:00 +25°C° 0.1 mm 3 m/S 748 mmHg 60%
    12:00 +25°C° 0.1 mm 3 m/S 748 mmHg 59%
    13:00 +26°C° 0.1 mm 3 m/S 748 mmHg 57%
    14:00 +26°C° 0.1 mm 3 m/S 748 mmHg 55%
    15:00 +26°C° 0 mm 3 m/S 748 mmHg 56%
    16:00 +26°C° 0 mm 3 m/S 748 mmHg 58%
    17:00 +26°C° 0 mm 3 m/S 748 mmHg 60%
    18:00 +24°C° 0.1 mm 2 m/S 748 mmHg 67%
    19:00 +21°C° 0.1 mm 2 m/S 748 mmHg 75%
    20:00 +19°C° 0.1 mm 2 m/S 748 mmHg 83%
    21:00 +18°C° 0 mm 2 m/S 748 mmHg 85%
    22:00 +17°C° 0 mm 2 m/S 749 mmHg 88%
    23:00 +16°C° 0 mm 2 m/S 749 mmHg 90%

    übermorgen, 25 Juli, Donnerstag

    Zeit Temperatur Niederschläge Wind Luftdruck Luftfeuchtigkeit
    00:00 +16°C° 0 mm 2 m/S 749 mmHg 90%
    01:00 +15°C° 0 mm 2 m/S 749 mmHg 90%
    02:00 +15°C° 0 mm 2 m/S 749 mmHg 91%
    03:00 +15°C° 0 mm 2 m/S 749 mmHg 91%
    04:00 +15°C° 0 mm 2 m/S 749 mmHg 91%
    05:00 +14°C° 0 mm 2 m/S 749 mmHg 91%
    06:00 +16°C° 0 mm 2 m/S 749 mmHg 85%
    07:00 +18°C° 0 mm 2 m/S 749 mmHg 78%
    08:00 +20°C° 0 mm 2 m/S 749 mmHg 72%
    09:00 +21°C° 0.3 mm 2 m/S 749 mmHg 70%
    10:00 +22°C° 0.3 mm 3 m/S 749 mmHg 68%
    11:00 +24°C° 0.3 mm 3 m/S 749 mmHg 67%
    12:00 +24°C° 0.8 mm 3 m/S 749 mmHg 69%
    13:00 +23°C° 0.8 mm 4 m/S 748 mmHg 71%
    14:00 +23°C° 0.8 mm 4 m/S 748 mmHg 73%
    15:00 +24°C° 0.7 mm 3 m/S 748 mmHg 75%
    16:00 +24°C° 0.7 mm 3 m/S 747 mmHg 78%
    17:00 +22°C° 0.7 mm 3 m/S 747 mmHg 80%
    18:00 +21°C° 0.5 mm 3 m/S 747 mmHg 84%
    19:00 +20°C° 0.5 mm 2 m/S 747 mmHg 87%
    20:00 +18°C° 0.5 mm 2 m/S 747 mmHg 90%
    21:00 +17°C° 0 mm 2 m/S 747 mmHg 92%
    22:00 +17°C° 0 mm 2 m/S 747 mmHg 94%
    23:00 +16°C° 0 mm 2 m/S 747 mmHg 96%

    26 Juli, Freitag

    Zeit Temperatur Niederschläge Wind Luftdruck Luftfeuchtigkeit
    00:00 +15°C° 0 mm 2 m/S 747 mmHg 96%
    01:00 +15°C° 0 mm 2 m/S 747 mmHg 97%
    02:00 +14°C° 0 mm 2 m/S 747 mmHg 97%
    03:00 +14°C° 0 mm 2 m/S 747 mmHg 97%
    04:00 +14°C° 0 mm 2 m/S 747 mmHg 97%
    05:00 +14°C° 0 mm 2 m/S 747 mmHg 98%
    06:00 +14°C° 0 mm 3 m/S 747 mmHg 95%
    07:00 +16°C° 0 mm 3 m/S 747 mmHg 92%
    08:00 +17°C° 0 mm 3 m/S 747 mmHg 90%
    09:00 +18°C° 0.1 mm 4 m/S 747 mmHg 86%
    10:00 +19°C° 0.1 mm 4 m/S 747 mmHg 83%
    11:00 +20°C° 0.1 mm 4 m/S 747 mmHg 79%
    12:00 +21°C° 0.1 mm 4 m/S 747 mmHg 76%
    13:00 +22°C° 0.1 mm 4 m/S 746 mmHg 73%
    14:00 +23°C° 0.1 mm 4 m/S 746 mmHg 70%
    15:00 +22°C° 0.4 mm 4 m/S 746 mmHg 75%
    16:00 +21°C° 0.4 mm 4 m/S 746 mmHg 80%
    17:00 +21°C° 0.4 mm 4 m/S 746 mmHg 85%
    18:00 +20°C° 0.5 mm 4 m/S 746 mmHg 87%
    19:00 +19°C° 0.5 mm 4 m/S 746 mmHg 89%
    20:00 +19°C° 0.5 mm 4 m/S 746 mmHg 92%
    21:00 +18°C° 0.2 mm 4 m/S 746 mmHg 93%
    22:00 +17°C° 0.2 mm 3 m/S 746 mmHg 95%
    23:00 +17°C° 0.2 mm 3 m/S 746 mmHg 97%

    27 Juli, Samstag

    Zeit Temperatur Niederschläge Wind Luftdruck Luftfeuchtigkeit
    00:00 +17°C° 0 mm 3 m/S 746 mmHg 97%
    01:00 +17°C° 0 mm 2 m/S 745 mmHg 98%
    02:00 +16°C° 0 mm 2 m/S 745 mmHg 98%
    03:00 +16°C° 0.1 mm 2 m/S 745 mmHg 98%
    04:00 +17°C° 0.1 mm 2 m/S 745 mmHg 98%
    05:00 +17°C° 0.1 mm 2 m/S 745 mmHg 98%
    06:00 +17°C° 0.1 mm 2 m/S 745 mmHg 97%
    07:00 +18°C° 0.1 mm 2 m/S 745 mmHg 96%
    08:00 +18°C° 0.1 mm 2 m/S 745 mmHg 96%
    09:00 +19°C° 0.2 mm 3 m/S 745 mmHg 91%
    10:00 +21°C° 0.2 mm 4 m/S 745 mmHg 86%
    11:00 +22°C° 0.2 mm 4 m/S 745 mmHg 81%
    12:00 +23°C° 0.7 mm 5 m/S 745 mmHg 80%
    13:00 +23°C° 0.7 mm 5 m/S 744 mmHg 80%
    14:00 +25°C° 0.7 mm 5 m/S 744 mmHg 79%
    15:00 +25°C° 0.6 mm 5 m/S 744 mmHg 80%
    16:00 +23°C° 0.6 mm 5 m/S 744 mmHg 82%
    17:00 +23°C° 0.6 mm 4 m/S 744 mmHg 84%
    18:00 +22°C° 0.4 mm 4 m/S 744 mmHg 87%
    19:00 +21°C° 0.4 mm 4 m/S 744 mmHg 90%
    20:00 +20°C° 0.4 mm 3 m/S 744 mmHg 93%
    21:00 +19°C° 0 mm 3 m/S 744 mmHg 94%
    22:00 +19°C° 0 mm 3 m/S 744 mmHg 95%
    23:00 +18°C° 0 mm 2 m/S 744 mmHg 97%

    28 Juli, Sonntag

    Zeit Temperatur Niederschläge Wind Luftdruck Luftfeuchtigkeit
    00:00 +18°C° 0 mm 2 m/S 744 mmHg 97%
    01:00 +18°C° 0 mm 2 m/S 744 mmHg 97%
    02:00 +17°C° 0 mm 2 m/S 744 mmHg 97%
    03:00 +17°C° 0 mm 2 m/S 744 mmHg 97%
    04:00 +17°C° 0 mm 2 m/S 744 mmHg 97%
    05:00 +17°C° 0 mm 2 m/S 744 mmHg 97%
    06:00 +18°C° 0 mm 3 m/S 744 mmHg 95%
    07:00 +20°C° 0 mm 3 m/S 744 mmHg 92%
    08:00 +21°C° 0 mm 3 m/S 744 mmHg 89%
    09:00 +24°C° 0.1 mm 3 m/S 744 mmHg 80%
    10:00 +25°C° 0.1 mm 4 m/S 744 mmHg 71%
    11:00 +27°C° 0.1 mm 4 m/S 744 mmHg 62%
    12:00 +28°C° 0.1 mm 4 m/S 744 mmHg 61%
    13:00 +28°C° 0.1 mm 4 m/S 744 mmHg 61%
    14:00 +28°C° 0.1 mm 4 m/S 743 mmHg 60%
    15:00 +28°C° 0.3 mm 4 m/S 743 mmHg 63%
    16:00 +27°C° 0.3 mm 4 m/S 743 mmHg 66%
    17:00 +27°C° 0.3 mm 4 m/S 743 mmHg 69%
    18:00 +25°C° 0.1 mm 3 m/S 743 mmHg 75%
    19:00 +24°C° 0.1 mm 3 m/S 743 mmHg 81%
    20:00 +21°C° 0.1 mm 3 m/S 744 mmHg 86%
    21:00 +20°C° 0 mm 3 m/S 744 mmHg 87%
    22:00 +19°C° 0 mm 3 m/S 744 mmHg 87%
    23:00 +18°C° 0 mm 3 m/S 744 mmHg 87%
    Mehr zeigen